Home > Weather > Remscheid > Past weeks

Flag for Germany Past Weather in Remscheid, North Rhine-Westphalia, Germany — Yesterday and Last 2 Weeks

Now
61 °F

Clear.


Feels Like: 61 °F
Forecast: 56 / 67 °F
Wind: 7 mph from Southwest

Location: Duesseldorf

Current Time: Jul 30, 2016 at 5:41:11 AM

Latest Report: Jul 30, 2016 at 5:20 AM


Visibility: 10 mi

Pressure: 29.89 "Hg

Humidity: 83%

Dew Point: 55 °F

Location of RemscheidLocation

Past Weather in Remscheid — Graph

°F

Remscheid Temperature Yesterday

Maximum temperature yesterday: 75 °F (at 4:20 PM)
Minimum temperature yesterday: 61 °F (at 3:20 AM)
Average temperature yesterday: 67 °F

High & Low Weather Summary for the Past Weeks

 TemperatureHumidityPressure
High95 °F (Jul 20, 4:20 PM)100% (Jul 18, 12:50 AM)30.30 "Hg (Jul 18, 12:50 AM)
Low54 °F (Jul 15, 4:20 AM)30% (Jul 20, 2:50 PM)29.83 "Hg (Jul 20, 5:20 PM)
Average71 °F72%30.07 "Hg
* Reported Jul 15 4:20 AM — Jul 30 4:20 AM, Remscheid, Weather by CustomWeather, © 2016

Note: Actual official high and low records may vary slightly from our data, if they occured in-between our weather recording intervals... More about our weather records

Advertising

Remscheid Weather History for the Previous 24 Hours

Scroll right to see more
 ConditionsComfort  
Time TempWeatherWind HumidityBarometerVisibility
4:20 AM
Sat, Jul 30
63 °FClear.6 mph83%29.89 "Hg10 mi
3:50 AM63 °FPassing clouds.6 mph83%29.89 "HgN/A
3:20 AM64 °FPassing clouds.6 mph78%29.89 "HgN/A
2:50 AM63 °FPartly cloudy.7 mph83%29.89 "HgN/A
2:20 AM64 °FPassing clouds.7 mph83%29.89 "HgN/A
1:50 AM63 °FPassing clouds.6 mph88%29.89 "HgN/A
1:20 AM61 °FPassing clouds.3 mph88%29.89 "HgN/A
12:50 AM61 °FClear.2 mph94%29.89 "Hg10 mi
12:20 AM61 °FClear.1 mph88%29.92 "Hg10 mi
11:50 PM
Fri, Jul 29
63 °FPassing clouds.3 mph83%29.89 "HgN/A
11:20 PM64 °FClear.6 mph78%29.89 "Hg10 mi
10:50 PM64 °FClear.7 mph78%29.89 "Hg10 mi
10:20 PM64 °FSunny.5 mph78%29.89 "Hg10 mi
9:50 PM68 °FSunny.5 mph69%29.89 "Hg10 mi
9:20 PM68 °FPassing clouds.5 mph69%29.89 "HgN/A
8:50 PM70 °FPassing clouds.8 mph64%29.89 "HgN/A
8:20 PM72 °FBroken clouds.10 mph61%29.89 "HgN/A
7:50 PM73 °FPartly sunny.12 mph57%29.86 "HgN/A
7:20 PM73 °FScattered clouds.12 mph57%29.86 "HgN/A
6:50 PM75 °FScattered clouds.13 mph57%29.86 "HgN/A
6:20 PM75 °FScattered clouds.13 mph57%29.86 "HgN/A
5:50 PM75 °FPassing clouds.15 mph61%29.86 "HgN/A
5:20 PM73 °FScattered showers. Scattered clouds.13 mph61%29.86 "HgN/A
4:50 PM73 °FScattered showers. Scattered clouds.15 mph61%29.86 "HgN/A
4:20 PM75 °FScattered clouds.14 mph61%29.86 "HgN/A
3:50 PM73 °FScattered clouds.13 mph65%29.89 "HgN/A
3:20 PM72 °FBroken clouds.13 mph65%29.89 "HgN/A
2:50 PM72 °FScattered showers. Partly sunny.13 mph69%29.89 "HgN/A
2:20 PM70 °FSprinkles. Partly sunny.14 mph73%29.89 "HgN/A
1:50 PM72 °FScattered showers. Broken clouds.12 mph73%29.89 "HgN/A
1:20 PM70 °FBroken clouds.10 mph73%29.89 "HgN/A
12:50 PM70 °FBroken clouds.9 mph78%29.89 "HgN/A
12:20 PM68 °FBroken clouds.8 mph83%29.89 "HgN/A
11:50 AM66 °FBroken clouds.10 mph88%29.92 "HgN/A
11:20 AM64 °FPartly sunny.10 mph94%29.92 "HgN/A
10:50 AM64 °FBroken clouds.9 mph94%29.92 "Hg4 mi
10:20 AM64 °FDrizzle. Broken clouds.10 mph94%29.92 "Hg4 mi
9:50 AM66 °FPartly sunny.12 mph83%29.92 "HgN/A
9:20 AM66 °FPartly sunny.12 mph83%29.92 "HgN/A
8:50 AM66 °FBroken clouds.10 mph83%29.92 "HgN/A
8:20 AM64 °FBroken clouds.10 mph88%29.92 "HgN/A
7:50 AM63 °FScattered clouds.10 mph88%29.92 "HgN/A
7:20 AM63 °FBroken clouds.8 mph88%29.92 "HgN/A
6:50 AM63 °FPartly cloudy.8 mph88%29.92 "HgN/A
6:20 AM63 °FPartly cloudy.8 mph88%29.92 "HgN/A
5:50 AM61 °FOvercast.9 mph94%29.92 "HgN/A
5:20 AM61 °FPassing clouds.10 mph94%29.92 "HgN/A
Weather by CustomWeather, © 2016

See weather overviewHow to use our weather pages